Starlink 31351

operational
NORAD ID: 58972 Int'l Des: 2024-031 Owner: SPXS Country: US Constellation: starlink
LEOCIRCULAR

About Starlink 31351

Description loading...

Live Position

Loading 3D Globe...

Upcoming Passes

Altitude History

Altitude vs Time

uPlot chart will show altitude changes over time

Two-Line Element Set

1 58972U 24031H 25303.97099298 .00000905 00000-0 42690-4 0 9996
2 58972 53.1604 179.1551 0001273 94.8373 265.2773 15.30192489 96669
Epoch: Oct 30, 2025 • Age: 17 hours

Current Status

Altitude 476.3 km
Velocity 7.63 km/s
Sub-Earth Point -0.17°S, 112.73°W
Launch Date Feb 15, 2024
Age 1.7 years
Type internet

Technical Details

Classification Payload
Mass 730.00 kg
Dry Mass 700.00 kg
Total Mass 730.00 kg
Length 0.30 m
Diameter 4.10 m
Span 29.00 m
Shape Box + pan
Manufacturer SPXS
Bus Type Starlink V2M
Phase Status In Orbit
Owner/State SPXS/US

Large Constellations

Loading constellations...